Volver al catálogo

STARLINK-36264

ActivoComunicacionesSSO
NORAD 68307·PAYLOAD·🇺🇸 United States

Lanzado Mar 20, 2026 desde Vandenberg Space Force Base

Loading…

Próximos Pases (próximas 24 horas)

TLE

ActualizadoSource: CelesTrak SupGP

Época: Sep 15, 2026, 03:35 UTC

1 68307C 26057P   26258.14979167  .00017995  00000+0  55871-3 0  2588
2 68307  97.2852  23.6642 0001188  79.2101  10.4480 15.33424287    17

Sigue STARLINK-36264 en tiempo real con AllMySat

Download on the App Store